Location: Wiesbaden
(50.0830°N, 8.2500°E)
Time: 08:16:48
(UTC+02:00)

ISS - Pass Details

Date: 22 May 2019
Orbit: 408 x 418 km, 51.6° (Epoch: 27 May)

Event Time Altitude Azimuth Distance (km) Brightness Sun altitude
Rises 22:38:52 0° 256° (WSW) 2,347 0.4 -10.6°
Reaches altitude 10° 22:40:58 10° 257° (WSW) 1,488 -0.6 -10.8°
Maximum altitude 22:44:18 84° 343° (NNW) 424 -3.7 -11.2°
Drops below altitude 10° 22:47:40 10° 75° (ENE) 1,497 -1.2 -11.5°
Sets 22:49:46 0° 76° (ENE) 2,363 -0.2 -11.7°
